EW8865 Weather Reports


Display with metric or nautical units.
time (UTC)temp
F
wind
direction
speed
MPH
gust
MPH
rain 1hr
in
rain 24hr
in
rain mn
in
humidity
%
barometer
mb
20260506211003 52 135 1.0 3.0 0.00 0.00 0.00 65 1013.8
20260506210503 52 135 1.0 3.0 0.00 0.00 0.00 65 1013.7
20260506210004 52 138 2.0 3.0 0.00 0.00 0.00 64 1013.7
20260506205504 52 138 0.0 0.0 0.00 0.00 0.00 64 1013.7
20260506205004 53 138 2.0 2.0 0.00 0.00 0.00 63 1013.7
20260506204503 53 138 2.0 3.0 0.00 0.00 0.00 62 1013.7
20260506203505 53 138 2.0 3.0 0.00 0.00 0.00 63 1013.7
20260506203003 53 138 1.0 3.0 0.00 0.00 0.00 63 1013.6
20260506202503 53 138 1.0 3.0 0.00 0.00 0.00 64 1013.7
20260506202003 54 138 1.0 2.0 0.00 0.00 0.00 62 1013.6
20260506201503 54 138 1.0 2.0 0.00 0.00 0.00 62 1013.6
20260506200503 54 138 1.0 2.0 0.00 0.00 0.00 62 1013.5
20260506200004 54 138 1.0 2.0 0.00 0.00 0.00 61 1013.4
20260506195504 54 138 2.0 3.0 0.00 0.00 0.00 61 1013.4
20260506194504 55 138 1.0 2.0 0.00 0.00 0.00 59 1013.4
20260506194003 55 138 1.0 3.0 0.00 0.00 0.00 59 1013.3
20260506193504 55 138 2.0 3.0 0.00 0.00 0.00 58 1013.3
20260506193004 55 137 2.0 3.0 0.00 0.00 0.00 58 1013.2
20260506192504 55 141 1.0 3.0 0.00 0.00 0.00 58 1013.2
20260506192004 55 134 1.0 2.0 0.00 0.00 0.00 57 1013.3
20260506191503 56 134 1.0 3.0 0.00 0.00 0.00 56 1013.2
20260506191003 56 134 1.0 3.0 0.00 0.00 0.00 57 1013.2
20260506190005 56 134 2.0 3.0 0.00 0.00 0.00 56 1013.2
20260506185505 56 134 2.0 3.0 0.00 0.00 0.00 56 1013.2
20260506185003 56 134 1.0 3.0 0.00 0.00 0.00 56 1013.1
20260506184503 56 134 2.0 3.0 0.00 0.00 0.00 57 1013.1
20260506183504 56 132 3.0 5.0 0.00 0.00 0.00 56 1013.1
20260506183004 56 138 2.0 3.0 0.00 0.00 0.00 55 1013.1
20260506182505 56 132 2.0 3.0 0.00 0.00 0.00 56 1013.1
20260506182004 57 135 3.0 3.0 0.00 0.00 0.00 55 1013.0
20260506181503 57 137 3.0 7.0 0.00 0.00 0.00 56 1013.0
20260506181004 57 124 1.0 3.0 0.00 0.00 0.00 57 1013.0
20260506180504 57 127 2.0 3.0 0.00 0.00 0.00 57 1013.0
20260506180005 57 138 2.0 5.0 0.00 0.00 0.00 56 1013.0
20260506175503 57 130 2.0 5.0 0.00 0.00 0.00 56 1012.9
20260506175003 57 125 2.0 5.0 0.00 0.00 0.00 55 1012.9
20260506174503 57 124 3.0 7.0 0.00 0.00 0.00 53 1012.9
20260506174003 57 113 4.0 8.0 0.00 0.00 0.00 52 1012.9
20260506173504 57 109 2.0 6.0 0.00 0.00 0.00 53 1012.9
20260506172503 58 65 2.0 3.0 0.00 0.00 0.00 53 1012.8
20260506172004 58 65 3.0 7.0 0.00 0.00 0.00 53 1012.8
20260506171503 58 117 2.0 3.0 0.00 0.00 0.00 52 1012.8
20260506171003 58 137 2.0 3.0 0.00 0.00 0.00 53 1012.7
20260506170004 58 138 2.0 3.0 0.00 0.00 0.00 54 1012.8
20260506165504 58 139 1.0 3.0 0.00 0.00 0.00 51 1012.7
20260506164503 59 113 5.0 8.0 0.00 0.00 0.00 53 1012.7
20260506164004 59 126 5.0 8.0 0.00 0.00 0.00 52 1012.7
20260506162503 59 127 3.0 7.0 0.00 0.00 0.00 50 1012.7
20260506162003 60 158 3.0 8.0 0.00 0.00 0.00 48 1012.7
20260506161503 60 113 5.0 9.0 0.00 0.00 0.00 49 1012.7
20260506161003 60 107 6.0 9.0 0.00 0.00 0.00 49 1012.7
20260506160504 60 92 3.0 8.0 0.00 0.00 0.00 47 1012.7
20260506160004 60 92 2.0 7.0 0.00 0.00 0.00 49 1012.8
20260506155503 61 136 3.0 6.0 0.00 0.00 0.00 49 1012.8
20260506155004 61 115 3.0 5.0 0.00 0.00 0.00 50 1012.8
20260506154004 60 128 5.0 9.0 0.00 0.00 0.00 52 1012.8
20260506153504 60 176 5.0 9.0 0.00 0.00 0.00 48 1012.8
20260506153004 61 149 5.0 9.0 0.00 0.00 0.00 47 1012.8
20260506152504 62 131 7.0 12.0 0.00 0.00 0.00 48 1012.8
20260506152004 63 169 5.0 8.0 0.00 0.00 0.00 47 1012.8
20260506151004 62 110 3.0 10.0 0.00 0.00 0.00 46 1012.9
20260506150504 62 96 5.0 9.0 0.00 0.00 0.00 47 1012.9
20260506145503 61 72 3.0 8.0 0.00 0.00 0.00 47 1012.9
20260506145004 62 61 5.0 10.0 0.00 0.00 0.00 46 1013.0
20260506144503 62 117 5.0 12.0 0.00 0.00 0.00 44 1013.0
20260506144004 62 94 4.0 10.0 0.00 0.00 0.00 48 1013.1
20260506143504 62 102 6.0 12.0 0.00 0.00 0.00 50 1013.0
20260506143003 62 75 7.0 12.0 0.00 0.00 0.00 49 1013.0
20260506142003 62 81 6.0 10.0 0.00 0.00 0.00 47 1013.1
20260506141504 62 123 5.0 9.0 0.00 0.00 0.00 49 1013.1
20260506141004 61 89 5.0 10.0 0.00 0.00 0.00 52 1013.2
20260506140004 61 59 3.0 9.0 0.00 0.00 0.00 52 1013.3
20260506135503 60 111 5.0 10.0 0.00 0.00 0.00 48 1013.4
20260506135004 60 114 4.0 8.0 0.00 0.00 0.00 48 1013.3
20260506134503 60 108 3.0 7.0 0.00 0.00 0.00 51 1013.3
20260506133503 60 83 7.0 12.0 0.00 0.00 0.00 47 1013.4
20260506133003 60 313 2.0 9.0 0.00 0.00 0.00 48 1013.4
20260506132505 60 70 6.0 10.0 0.00 0.00 0.00 47 1013.5
20260506132003 60 90 3.0 12.0 0.00 0.00 0.00 49 1013.4
20260506131504 61 90 5.0 10.0 0.00 0.00 0.00 48 1013.5
20260506131003 61 75 6.0 9.0 0.00 0.00 0.00 47 1013.4
20260506130504 62 127 7.0 12.0 0.00 0.00 0.00 46 1013.4
20260506130005 62 64 5.0 12.0 0.00 0.00 0.00 48 1013.5
20260506125504 62 122 4.0 13.0 0.00 0.00 0.00 47 1013.5
20260506124504 62 148 6.0 12.0 0.00 0.00 0.00 48 1013.5
20260506123504 61 97 10.0 15.0 0.00 0.00 0.00 48 1013.4
20260506123005 60 132 8.0 14.0 0.00 0.00 0.00 47 1013.4
20260506122504 60 125 9.0 12.0 0.00 0.00 0.00 49 1013.4
20260506122003 60 115 9.0 15.0 0.00 0.00 0.00 48 1013.4
20260506121503 60 117 11.0 16.0 0.00 0.00 0.00 47 1013.4
20260506121003 60 102 9.0 15.0 0.00 0.00 0.00 49 1013.4
20260506120504 61 97 7.0 13.0 0.00 0.00 0.00 45 1013.4
20260506120003 61 118 8.0 12.0 0.00 0.00 0.00 47 1013.4
20260506115003 59 122 5.0 13.0 0.00 0.00 0.00 55 1013.5
20260506114505 59 120 6.0 14.0 0.00 0.00 0.00 52 1013.5
20260506113504 58 108 6.0 12.0 0.00 0.00 0.00 51 1013.5
20260506113004 58 115 8.0 13.0 0.00 0.00 0.00 52 1013.6
20260506112503 58 103 7.0 12.0 0.00 0.00 0.00 50 1013.6
20260506112004 58 88 7.0 10.0 0.00 0.00 0.00 53 1013.6
20260506111503 57 103 10.0 13.0 0.00 0.00 0.00 53 1013.7
20260506110004 57 101 7.0 12.0 0.00 0.00 0.00 52 1013.8
20260506105503 57 91 6.0 12.0 0.00 0.00 0.00 53 1013.8
20260506104504 57 95 7.0 14.0 0.00 0.00 0.00 58 1013.8
20260506104005 57 114 7.0 12.0 0.00 0.00 0.00 58 1013.8
20260506103503 56 86 6.0 12.0 0.00 0.00 0.00 58 1013.8
20260506103003 55 114 4.0 10.0 0.00 0.00 0.00 59 1013.7
20260506102504 55 102 6.0 12.0 0.00 0.00 0.00 58 1013.8
20260506102004 55 114 5.0 12.0 0.00 0.00 0.00 58 1013.8
20260506101003 55 109 7.0 10.0 0.00 0.00 0.00 59 1013.9
20260506100504 54 117 4.0 9.0 0.00 0.00 0.00 60 1013.9
20260506100004 54 131 4.0 9.0 0.00 0.00 0.00 61 1013.9
20260506095504 53 122 5.0 9.0 0.00 0.00 0.00 62 1013.9
20260506095004 53 122 5.0 10.0 0.00 0.00 0.00 61 1013.9
20260506094504 53 93 3.0 9.0 0.00 0.00 0.00 62 1014.0
20260506094004 53 72 4.0 8.0 0.00 0.00 0.00 65 1014.0
20260506093503 52 108 3.0 8.0 0.00 0.00 0.00 64 1013.9
20260506093004 52 104 5.0 9.0 0.00 0.00 0.00 63 1013.9
20260506092503 52 111 5.0 10.0 0.00 0.00 0.00 64 1013.8
20260506092003 52 117 7.0 12.0 0.00 0.00 0.00 63 1013.9
20260506091504 52 92 6.0 10.0 0.00 0.00 0.00 64 1013.9
20260506091003 52 90 7.0 10.0 0.00 0.00 0.00 65 1013.9
20260506090504 52 123 7.0 12.0 0.00 0.00 0.00 63 1013.9
20260506090004 52 98 5.0 10.0 0.00 0.00 0.00 66 1013.9
20260506085504 52 83 4.0 12.0 0.00 0.00 0.00 66 1013.9
20260506085004 52 80 3.0 12.0 0.00 0.00 0.00 66 1013.8
20260506084504 51 54 5.0 10.0 0.00 0.00 0.00 67 1013.8
20260506084004 51 78 5.0 12.0 0.00 0.00 0.00 66 1013.7
20260506083504 51 100 4.0 7.0 0.00 0.00 0.00 67 1013.8
20260506083004 51 85 2.0 7.0 0.00 0.00 0.00 66 1013.8
20260506082004 50 82 4.0 9.0 0.00 0.00 0.00 66 1013.8
20260506081503 50 76 5.0 10.0 0.00 0.00 0.00 66 1013.8
20260506080503 50 66 4.0 9.0 0.00 0.00 0.00 67 1013.9
20260506073504 48 80 5.0 12.0 0.00 0.00 0.00 68 1013.8
20260506073004 48 71 5.0 8.0 0.00 0.00 0.00 68 1013.7
20260506072004 48 74 4.0 9.0 0.00 0.00 0.00 68 1013.7
20260506071504 48 90 4.0 9.0 0.00 0.00 0.00 68 1013.7
20260506071004 48 67 4.0 10.0 0.00 0.00 0.00 68 1013.7
20260506070504 48 106 3.0 9.0 0.00 0.00 0.00 69 1013.7
20260506062004 48 53 5.0 9.0 0.00 0.00 0.00 75 1013.3
20260506061503 48 33 5.0 9.0 0.00 0.00 0.00 75 1013.3
20260506061004 48 39 5.0 10.0 0.00 0.00 0.00 76 1013.3
20260506060504 48 41 3.0 7.0 0.00 0.00 0.00 76 1013.3
20260506051003 48 55 3.0 6.0 0.00 0.00 0.00 77 1013.0
20260506050503 48 45 3.0 7.0 0.00 0.00 0.00 76 1013.0
20260506045003 48 59 2.0 5.0 0.00 0.00 0.00 76 1012.9
20260506044503 48 52 3.0 5.0 0.00 0.00 0.00 75 1012.9
20260506044004 48 72 2.0 3.0 0.00 0.00 0.00 75 1013.0
20260506043504 48 40 3.0 8.0 0.00 0.00 0.00 75 1012.9
20260506043004 48 106 2.0 6.0 0.00 0.00 0.00 75 1012.9
20260506042503 48 80 2.0 12.0 0.00 0.00 0.00 74 1012.9
20260506042004 48 77 3.0 8.0 0.00 0.00 0.00 74 1012.9
20260506041504 48 87 3.0 8.0 0.00 0.00 0.00 74 1012.8
20260506041003 48 67 3.0 6.0 0.00 0.00 0.00 74 1012.9
20260506040503 49 71 2.0 5.0 0.00 0.00 0.00 75 1012.9
20260506040004 49 73 2.0 5.0 0.00 0.00 0.00 74 1012.8
20260506035504 49 86 3.0 9.0 0.00 0.00 0.00 74 1012.8
20260506035004 49 75 5.0 9.0 0.00 0.00 0.00 74 1012.8
20260506034504 49 76 5.0 10.0 0.00 0.00 0.00 74 1012.9
20260506034004 49 73 4.0 12.0 0.00 0.00 0.00 75 1012.9
20260506033503 49 46 4.0 12.0 0.00 0.00 0.00 75 1012.9
20260506033005 49 64 3.0 7.0 0.00 0.00 0.00 75 1012.9
20260506032503 49 73 3.0 9.0 0.00 0.00 0.00 75 1012.9
20260506032004 49 67 5.0 9.0 0.00 0.00 0.00 76 1012.8
20260506031504 49 86 3.0 6.0 0.00 0.00 0.00 77 1012.8
20260506031004 49 62 2.0 5.0 0.00 0.00 0.00 77 1012.9
20260506030504 49 53 3.0 9.0 0.00 0.00 0.00 77 1012.8
20260506030004 50 37 2.0 5.0 0.00 0.00 0.00 77 1012.8
20260506025503 50 43 3.0 9.0 0.00 0.00 0.00 77 1012.8
20260506025004 50 63 4.0 9.0 0.00 0.00 0.00 77 1012.9
20260506024503 50 57 3.0 5.0 0.00 0.00 0.00 76 1012.9
20260506024004 50 56 3.0 8.0 0.00 0.00 0.00 77 1012.9
20260506023504 50 39 3.0 6.0 0.00 0.00 0.00 76 1012.9
20260506023004 50 45 3.0 8.0 0.00 0.00 0.00 76 1012.9
20260506022503 50 48 5.0 10.0 0.00 0.00 0.00 76 1012.9
20260506022004 50 53 3.0 9.0 0.00 0.00 0.00 76 1012.9
20260506021503 50 27 4.0 6.0 0.00 0.00 0.00 76 1012.9
20260506021004 50 47 3.0 6.0 0.00 0.00 0.00 76 1012.8
20260506020503 50 38 4.0 9.0 0.00 0.00 0.00 76 1012.9
20260506020004 50 41 2.0 3.0 0.00 0.00 0.00 76 1012.9
20260506015503 50 40 4.0 8.0 0.00 0.00 0.00 76 1012.9
20260506015003 50 34 3.0 8.0 0.00 0.00 0.00 75 1012.9
20260506014503 50 53 2.0 6.0 0.00 0.00 0.00 75 1012.9
20260506014005 50 25 5.0 10.0 0.00 0.00 0.00 75 1012.9
20260506013504 50 41 5.0 9.0 0.00 0.00 0.00 75 1012.9
20260506013004 50 42 4.0 9.0 0.00 0.00 0.00 75 1013.0
20260506012503 50 37 3.0 8.0 0.00 0.00 0.00 75 1013.0
20260506012004 50 42 2.0 8.0 0.00 0.00 0.00 75 1013.1
20260506011504 50 48 3.0 9.0 0.00 0.00 0.00 74 1013.1
20260506011004 50 34 3.0 9.0 0.00 0.00 0.00 74 1013.1
20260506010503 50 44 5.0 10.0 0.00 0.00 0.00 74 1013.1
20260506010003 50 19 5.0 10.0 0.00 0.00 0.00 74 1013.1
20260506005504 51 41 2.0 9.0 0.00 0.00 0.00 74 1013.1
20260506005003 51 52 4.0 13.0 0.00 0.00 0.00 74 1013.1
20260506004004 51 28 3.0 13.0 0.00 0.00 0.00 73 1013.1
20260506003503 51 17 3.0 8.0 0.00 0.00 0.00 73 1013.2
20260506003004 51 42 4.0 6.0 0.00 0.00 0.00 73 1013.2
20260506001504 51 47 5.0 12.0 0.00 0.00 0.00 72 1013.3
20260506000504 51 43 6.0 12.0 0.00 0.00 0.00 72 1013.2
20260506000004 51 30 3.0 10.0 0.00 0.00 0.00 72 1013.2
20260505235504 51 26 3.0 7.0 0.00 0.00 0.00 71 1013.2
20260505235003 51 44 6.0 12.0 0.00 0.00 0.00 71 1013.2
20260505234503 51 34 2.0 8.0 0.00 0.00 0.00 71 1013.2
20260505234004 51 55 4.0 9.0 0.00 0.00 0.00 71 1013.3
20260505233504 51 78 3.0 5.0 0.00 0.00 0.00 71 1013.2
20260505233004 51 78 2.0 7.0 0.00 0.00 0.00 71 1013.2
20260505232503 51 80 2.0 3.0 0.00 0.00 0.00 71 1013.2
20260505232004 51 80 2.0 3.0 0.00 0.00 0.00 71 1013.2
20260505231503 51 57 1.0 3.0 0.00 0.00 0.00 70 1013.3
20260505231003 51 54 1.0 2.0 0.00 0.00 0.00 70 1013.3
20260505230504 51 54 2.0 3.0 0.00 0.00 0.00 70 1013.3
20260505230003 51 52 1.0 3.0 0.00 0.00 0.00 70 1013.3
20260505225004 51 53 2.0 3.0 0.00 0.00 0.00 70 1013.4
20260505224504 51 51 2.0 3.0 0.00 0.00 0.00 70 1013.4
20260505224004 51 50 2.0 3.0 0.00 0.00 0.00 70 1013.4
20260505223503 51 48 2.0 3.0 0.00 0.00 0.00 69 1013.4
20260505222504 51 90 2.0 6.0 0.00 0.00 0.00 69 1013.4
20260505222003 51 92 2.0 3.0 0.00 0.00 0.00 70 1013.4
20260505221503 51 92 5.0 7.0 0.00 0.00 0.00 69 1013.5
20260505221004 51 67 1.0 2.0 0.00 0.00 0.00 69 1013.5
20260505215004 51 65 2.0 3.0 0.00 0.00 0.00 69 1013.4
20260505214504 51 62 1.0 2.0 0.00 0.00 0.00 69 1013.4
20260505214005 51 61 1.0 3.0 0.00 0.00 0.00 70 1013.4
20260505213503 51 62 1.0 2.0 0.00 0.00 0.00 70 1013.4
20260505213003 52 62 0.0 0.0 0.00 0.00 0.00 70 1013.5